EW5923 Weather Reports


Display with metric or nautical units.
time (UTC)temp
F
wind
direction
speed
MPH
gust
MPH
rain 1hr
in
rain 24hr
in
rain mn
in
humidity
%
barometer
mb
20260906070144 86 354 2.0 4.0 0.00 0.00 0.00 39 1012.9
20260906065123 85 333 1.0 3.0 0.00 0.00 0.00 39 1012.8
20260906064123 86 333 1.0 3.0 0.00 0.00 0.00 38 1012.9
20260906063124 86 333 2.0 3.0 0.00 0.00 0.00 38 1012.9
20260906062123 86 332 2.0 3.0 0.00 0.00 0.00 38 1012.9
20260906061123 87 332 2.0 3.0 0.00 0.00 0.00 37 1012.8
20260906060145 87 336 3.0 4.0 0.00 0.00 0.00 37 1012.7
20260906055124 87 333 3.0 4.0 0.00 0.00 0.00 37 1012.8
20260906054124 87 360 2.0 4.0 0.00 0.00 0.00 37 1012.9
20260906053123 88 360 1.0 2.0 0.00 0.00 0.00 36 1012.9
20260906052123 88 358 1.0 3.0 0.00 0.00 0.00 36 1012.9
20260906051123 89 358 2.0 2.0 0.00 0.00 0.00 35 1012.9
20260906050123 90 343 2.0 4.0 0.00 0.00 0.00 34 1013.0
20260906045144 91 335 3.0 6.0 0.00 0.00 0.00 33 1013.0
20260906044144 91 351 4.0 7.0 0.00 0.00 0.00 33 1013.0
20260906043145 91 341 4.0 7.0 0.00 0.00 0.00 32 1012.9
20260906042144 91 335 4.0 6.0 0.00 0.00 0.00 32 1013.0
20260906041124 91 357 4.0 8.0 0.00 0.00 0.00 32 1013.0
20260906040124 92 344 3.0 6.0 0.00 0.00 0.00 32 1013.0
20260906035123 92 352 4.0 8.0 0.00 0.00 0.00 31 1013.0
20260906034124 92 346 6.0 9.0 0.00 0.00 0.00 31 1013.0
20260906033124 93 347 6.0 10.0 0.00 0.00 0.00 31 1012.9
20260906032145 93 350 5.0 8.0 0.00 0.00 0.00 31 1012.6
20260906031123 93 352 6.0 11.0 0.00 0.00 0.00 30 1012.6
20260906030124 93 353 8.0 12.0 0.00 0.00 0.00 30 1012.5
20260906025123 94 353 5.0 12.0 0.00 0.00 0.00 29 1012.5
20260906024124 94 353 6.0 10.0 0.00 0.00 0.00 29 1012.4
20260906023123 94 350 6.0 10.0 0.00 0.00 0.00 29 1012.3
20260906022123 94 357 7.0 11.0 0.00 0.00 0.00 29 1012.1
20260906021123 95 354 6.0 10.0 0.00 0.00 0.00 29 1012.0
20260906020124 95 351 4.0 8.0 0.00 0.00 0.00 28 1012.1
20260906015124 95 354 6.0 9.0 0.00 0.00 0.00 28 1012.2
20260906014124 95 352 7.0 11.0 0.00 0.00 0.00 28 1012.3
20260906013124 96 352 8.0 12.0 0.00 0.00 0.00 28 1012.3
20260906012144 96 356 10.0 16.0 0.00 0.00 0.00 27 1012.4
20260906011122 97 355 9.0 15.0 0.00 0.00 0.00 27 1012.3
20260906010122 97 357 10.0 16.0 0.00 0.00 0.00 27 1012.3
20260906005123 98 349 7.0 14.0 0.00 0.00 0.00 27 1012.3
20260906004123 98 353 8.0 12.0 0.00 0.00 0.00 28 1012.4
20260906003122 98 339 8.0 15.0 0.00 0.00 0.00 28 1012.4
20260906002123 98 343 10.0 14.0 0.00 0.00 0.00 29 1012.1
20260906001123 98 351 7.0 11.0 0.00 0.00 0.00 29 1012.0
20260906000122 98 346 9.0 15.0 0.00 0.00 0.00 29 1012.0
20260905235143 99 354 9.0 15.0 0.00 0.00 0.00 29 1012.2
20260905234124 99 336 6.0 10.0 0.00 0.00 0.00 29 1012.0
20260905233123 99 350 8.0 13.0 0.00 0.00 0.00 29 1012.0
20260905232124 99 337 6.0 11.0 0.00 0.00 0.00 30 1012.1
20260905231144 99 344 9.0 12.0 0.00 0.00 0.00 29 1012.2
20260905230145 98 348 5.0 12.0 0.00 0.00 0.00 30 1012.1
20260905225145 99 347 6.0 12.0 0.00 0.00 0.00 30 1012.2
20260905224123 99 348 7.0 13.0 0.00 0.00 0.00 29 1012.3
20260905223123 99 350 8.0 16.0 0.00 0.00 0.00 29 1012.3
20260905222144 99 347 8.0 13.0 0.00 0.00 0.00 29 1012.4
20260905221124 99 351 8.0 13.0 0.00 0.00 0.00 29 1012.6
20260905220123 99 348 7.0 15.0 0.00 0.00 0.00 30 1012.6
20260905215122 100 353 7.0 13.0 0.00 0.00 0.00 29 1012.8
20260905214122 99 344 7.0 14.0 0.00 0.00 0.00 29 1012.9
20260905213122 99 351 11.0 17.0 0.00 0.00 0.00 29 1012.9
20260905212124 99 337 5.0 10.0 0.00 0.00 0.00 29 1013.0
20260905211124 99 334 5.0 13.0 0.00 0.00 0.00 29 1013.4
20260905210143 99 347 7.0 12.0 0.00 0.00 0.00 29 1013.5
20260905205123 98 330 3.0 9.0 0.00 0.00 0.00 29 1013.5
20260905204123 98 352 7.0 11.0 0.00 0.00 0.00 29 1013.7
20260905203144 98 336 4.0 9.0 0.00 0.00 0.00 29 1013.7
20260905202122 98 318 6.0 10.0 0.00 0.00 0.00 28 1014.0
20260905201122 98 324 6.0 14.0 0.00 0.00 0.00 28 1014.0
20260905200122 98 342 5.0 12.0 0.00 0.00 0.00 28 1014.2
20260905195122 98 350 6.0 9.0 0.00 0.00 0.00 27 1014.3
20260905194122 98 327 7.0 11.0 0.00 0.00 0.00 28 1014.5
20260905193122 98 325 6.0 11.0 0.00 0.00 0.00 26 1014.5
20260905192124 97 336 4.0 11.0 0.00 0.00 0.00 28 1014.8
20260905191122 98 81 3.0 7.0 0.00 0.00 0.00 28 1014.8
20260905190143 97 337 6.0 10.0 0.00 0.00 0.00 28 1015.1
20260905185122 97 41 4.0 8.0 0.00 0.00 0.00 29 1015.2
20260905184123 96 35 3.0 7.0 0.00 0.00 0.00 28 1015.4
20260905183122 96 354 6.0 10.0 0.00 0.00 0.00 29 1015.4
20260905182122 96 332 5.0 9.0 0.00 0.00 0.00 29 1015.5
20260905181122 97 90 3.0 4.0 0.00 0.00 0.00 29 1015.6
20260905180122 96 31 3.0 6.0 0.00 0.00 0.00 29 1015.6
20260905175124 96 224 2.0 5.0 0.00 0.00 0.00 30 1015.5
20260905174123 95 354 3.0 5.0 0.00 0.00 0.00 31 1015.6
20260905173123 94 354 3.0 6.0 0.00 0.00 0.00 32 1015.7
20260905172144 95 46 4.0 9.0 0.00 0.00 0.00 32 1015.6
20260905171122 95 45 4.0 8.0 0.00 0.00 0.00 32 1015.7
20260905170145 93 249 2.0 5.0 0.00 0.00 0.00 33 1015.8
20260905165122 93 336 2.0 6.0 0.00 0.00 0.00 33 1015.8
20260905164144 93 312 3.0 4.0 0.00 0.00 0.00 33 1015.7
20260905163122 93 272 3.0 6.0 0.00 0.00 0.00 35 1015.8
20260905162123 92 343 3.0 8.0 0.00 0.00 0.00 35 1015.8
20260905161144 91 280 4.0 6.0 0.00 0.00 0.00 36 1015.7
20260905160122 91 105 4.0 7.0 0.00 0.00 0.00 37 1015.6
20260905155122 89 359 3.0 6.0 0.00 0.00 0.00 38 1015.5
20260905154123 89 153 3.0 5.0 0.00 0.00 0.00 39 1015.5
20260905153123 88 169 3.0 5.0 0.00 0.00 0.00 39 1015.4
20260905152123 89 101 2.0 4.0 0.00 0.00 0.00 39 1015.3
20260905151123 89 44 3.0 4.0 0.00 0.00 0.00 40 1015.3
20260905150143 87 44 2.0 4.0 0.00 0.00 0.00 43 1015.4
20260905145124 86 44 1.0 3.0 0.00 0.00 0.00 44 1015.3
20260905144122 85 44 2.0 4.0 0.00 0.00 0.00 45 1015.4
20260905143123 84 43 2.0 3.0 0.00 0.00 0.00 45 1015.3
20260905142122 84 48 2.0 2.0 0.00 0.00 0.00 46 1015.3
20260905141124 84 49 1.0 3.0 0.00 0.00 0.00 46 1015.1
20260905140144 83 41 2.0 3.0 0.00 0.00 0.00 47 1015.1
20260905135123 82 46 1.0 2.0 0.00 0.00 0.00 47 1015.0
20260905134122 81 37 1.0 3.0 0.00 0.00 0.00 49 1014.9
20260905133124 80 44 2.0 4.0 0.00 0.00 0.00 51 1014.6
20260905132123 79 42 3.0 4.0 0.00 0.00 0.00 52 1014.5
20260905131122 79 9 3.0 4.0 0.00 0.00 0.00 52 1014.3
20260905130122 79 346 2.0 3.0 0.00 0.00 0.00 53 1014.4
20260905125143 78 346 3.0 3.0 0.00 0.00 0.00 53 1014.3
20260905124149 78 346 2.0 3.0 0.00 0.00 0.00 52 1014.3
20260905124145 78 346 2.0 2.0 0.00 0.00 0.00 52 1014.3
20260905123123 79 346 2.0 3.0 0.00 0.00 0.00 51 1014.3
20260905122143 80 346 3.0 4.0 0.00 0.00 0.00 51 1014.2
20260905121122 81 323 2.0 3.0 0.00 0.00 0.00 49 1014.1
20260905120123 81 323 2.0 3.0 0.00 0.00 0.00 48 1014.1
20260905115122 82 335 1.0 3.0 0.00 0.00 0.00 47 1014.1
20260905114123 81 360 2.0 4.0 0.00 0.00 0.00 48 1014.0
20260905113145 82 326 3.0 4.0 0.00 0.00 0.00 47 1014.0
20260905112122 81 360 1.0 3.0 0.00 0.00 0.00 49 1013.9
20260905111122 81 360 1.0 2.0 0.00 0.00 0.00 48 1013.7
20260905110123 81 350 1.0 3.0 0.00 0.00 0.00 50 1013.6
20260905105124 81 360 0.0 0.0 0.00 0.00 0.00 49 1013.6
20260905104122 81 360 0.0 0.0 0.00 0.00 0.00 49 1013.5
20260905103122 81 360 0.0 0.0 0.00 0.00 0.00 48 1013.5
20260905102123 82 360 0.0 0.0 0.00 0.00 0.00 47 1013.6
20260905101143 82 298 0.0 0.0 0.00 0.00 0.00 46 1013.4
20260905100123 83 339 0.0 1.0 0.00 0.00 0.00 45 1013.4
20260905095122 83 360 1.0 2.0 0.00 0.00 0.00 44 1013.5
20260905094144 83 360 2.0 2.0 0.00 0.00 0.00 44 1013.6
20260905093123 84 360 2.0 2.0 0.00 0.00 0.00 44 1013.6
20260905092123 84 360 2.0 3.0 0.00 0.00 0.00 44 1013.5
20260905091122 84 334 2.0 3.0 0.00 0.00 0.00 43 1013.5
20260905090124 83 294 0.0 0.0 0.00 0.00 0.00 44 1013.5
20260905085122 84 295 1.0 2.0 0.00 0.00 0.00 42 1013.6
20260905084122 84 325 2.0 3.0 0.00 0.00 0.00 43 1013.6
20260905083122 83 360 0.0 0.0 0.00 0.00 0.00 44 1013.6
20260905082123 83 297 0.0 0.0 0.00 0.00 0.00 44 1013.5
20260905081122 84 297 0.0 0.0 0.00 0.00 0.00 44 1013.5
20260905080122 85 297 0.0 0.0 0.00 0.00 0.00 42 1013.6
20260905075122 85 296 1.0 2.0 0.00 0.00 0.00 40 1013.5
20260905074122 86 296 1.0 3.0 0.00 0.00 0.00 40 1013.5
20260905073122 86 310 2.0 3.0 0.00 0.00 0.00 40 1013.4
20260905072122 86 322 2.0 3.0 0.00 0.00 0.00 40 1013.4
20260905071123 87 303 2.0 5.0 0.00 0.00 0.00 40 1013.5